Regional Weather Roundup
Issued by NWS

Home | Current Version | Previous Version | Graphics & Text | Print | Product List | Glossary On
Versions: 1 2 3 4 5 6 7 8 9 10 11 12 13 14 15 16 17 18 19 20 21 22 23 24 25 26 27 28 29 30 31 32 33 34 35 36 37 38 39 40 41 42 43 44 45 46 47 48 49 50
000
ASUS43 KMPX 030910
RWRMN
WEATHER ROUNDUP FOR MINNESOTA
NATIONAL WEATHER SERVICE TWIN CITIES/CHANHASSEN MN
400 AM CDT THU SEP 03 2015


NOTE: "FAIR" INDICATES FEW OR NO CLOUDS BELOW 12,000 FEET WITH NO
SIGNIFICANT WEATHER AND/OR OBSTRUCTIONS TO VISIBILITY. N/A MEANS
CURRENT SKY AND/OR WEATHER CONDITIONS ARE NOT AVAILABLE.

MNZ060>063-068>070-031000-
   Twin Cities Metro

CITY           SKY/WX    TMP DP  RH WIND       PRES   REMARKS
TWIN CITIES    PTCLDY    68  66  93 E6        29.90R
ST PAUL        MOCLDY    67  66  97 CALM      29.90S
CRYSTAL        CLOUDY    70  66  87 CALM      29.88S
BLAINE         PTCLDY    68  68 100 E3        29.90S
LAKEVILLE      FOG       66  66 100 E3        29.90S VSB 1/4
EDEN PRAIRIE   CLOUDY    69  67  93 E7        29.88S
SOUTH ST PAUL  CLEAR     67  65  93 CALM      29.90S
LAKE ELMO      FAIR      64  64 100 CALM      29.92R
$$
MNZ001>005-007-008-013>017-022>024-027-028-031000-
   Northwest Minnesota

CITY           SKY/WX    TMP DP  RH WIND       PRES   REMARKS
BEMIDJI        CLOUDY    65  64  97 SE14      29.90S
HALLOCK        CLEAR     70  66  88 SE10      29.79S
ROSEAU         CLEAR     66  63  88 SE7       29.85S
WARROAD        CLEAR     66  63  88 SE9       29.87S
THIEF RVR FALL CLEAR     64  64 100 SE9       29.84S
CROOKSTON      CLEAR     68  66  94 SE12      29.81F
FOSSTON        CLEAR     66  63  88 SE9       29.86S
DETROIT LAKES  CLOUDY    70  68  94 SE14G20   29.88S
MOORHEAD       CLOUDY    72  70  94 SE10G16   29.81S FOG
PARK RAPIDS    CLOUDY    68  65  90 SE8       29.90S
MAHNOMEN       CLOUDY    69  67  93 SE12      29.85S
$$
MNZ006-009>011-018-025>026-031000-
   North Central Minnesota

CITY           SKY/WX    TMP DP  RH WIND       PRES   REMARKS
BAUDETTE       CLEAR     63  62  97 SE8       29.89S
FLAG ISLAND    CLEAR     70  64  83 S15       29.87S
INTL FALLS     CLEAR     60  59  96 SE7       29.93F
WASKISH        CLEAR     61  59  94 CALM      29.90S FOG
BIG FORK       CLOUDY    64  63  94 SE5       29.95R
LONGVILLE      CLOUDY    64  64 100 SE6       29.93S
GRAND RAPIDS     N/A     61  59  94 SE6       29.95S VSB 1/2
CRANE LAKE     CLEAR     52  52 100 CALM      29.98S
ORR            CLEAR     59  57  94 CALM      29.95R
COOK           FOG       61  59  94 SE3       29.98S VSB 3/4
WALKER         CLOUDY    65  64  95 SE8       29.91S
$$
MNZ012-019>021-037-031000-
   Northeast Minnesota

CITY           SKY/WX    TMP DP  RH WIND       PRES   REMARKS
DULUTH         FOG       61  61 100 E7        29.97S VSB 1/4
ELY            FOG       55  54  94 CALM      29.99S VSB 1
HIBBING        CLOUDY    61  60  97 CALM      29.97S FOG
EVELETH        FOG       59  59 100 E3        29.99S VSB 1/2
DULUTH HARBOR  FOG       59  57  94 E5        29.97S VSB 1/4
TWO HARBORS    HAZE      66  61  82 E5        29.96S VSB 1/2
SILVER BAY     FOG       64  63  94 CALM      29.96S VSB 1/4
GRAND MARAIS     N/A     55  53  93 CALM      29.97S
G MARAIS ARPRT CLEAR     52  48  87 N3        30.02S FOG
$$
MNZ029>031-032-039>041-046>048-054>057-064-031000-
   West Central Minnesota

CITY           SKY/WX    TMP DP  RH WIND       PRES   REMARKS
FERGUS FALLS   CLOUDY    72  72 100 SE12      29.83S FOG
WHEATON        CLOUDY    68  66  94 SE12G18   29.83S FOG
MORRIS         FOG       72  70  94 SE12      29.83F VSB 1
ALEXANDRIA     CLOUDY    68  66  93 SE14      29.89S
ELBOW LAKE     CLOUDY    69  69  98 SE13G18   29.84S FOG
WADENA         CLOUDY    68  64  88 E10       29.89S
GLENWOOD       FOG       66  66 100 E10       29.89S VSB 1/2
APPLETON       CLOUDY    72  68  88 SE8       29.83S FOG
BENSON         FOG       70  66  88 SE6       29.85S VSB 1
ORTONVILLE     CLOUDY    70  68  94 SE9       29.82S
MADISON          N/A     70  68  94 E6        29.83R FOG
WILLMAR        FOG       70  70 100 E8        29.88S VSB 1/2
$$
MNZ033>034-036-042>043-049>051-058-059-031000-
   Central Minnesota

CITY           SKY/WX    TMP DP  RH WIND       PRES   REMARKS
ST CLOUD       CLEAR     65  65 100 E6        29.89F
SAUK CENTRE    CLOUDY    66  65  96 CALM      29.90R
PAYNESVILLE    CLOUDY    67  67  98 E7        29.89F
AITKIN         CLOUDY    64  59  82 E3        29.92S
PINE RIVER     CLOUDY    64  64 100 SE6       29.95F FOG
BRAINERD       CLOUDY    66  64  93 VRB5      29.91F
STAPLES        CLOUDY    66  64  94 E6        29.90S
LONG PRAIRIE   CLOUDY    68  64  88 E6        29.90S
LITTLE FALLS   MOCLDY    66  63  88 CALM      29.91R
LITCHFIELD     CLOUDY    70  70 100 E8        29.89F FOG
BUFFALO        CLOUDY    67  65  91 E3        29.90S
MAPLE LAKE     CLOUDY    68  67  96 E5        29.90S
$$
MNZ037-044-045-052-053-031000-
   East Central Minnesota

CITY           SKY/WX    TMP DP  RH WIND       PRES   REMARKS
PRINCETON      MOCLDY    68  66  94 CALM      29.91S
MORA           MOCLDY    63  63 100 CALM      29.94S
CAMBRIDGE      CLEAR     68  59  73 CALM      29.89S
RUSH CITY      PTCLDY    64  63  96 NE5       29.92S
MOOSE LAKE     FOG       59  59 100 CALM      29.93S VSB 3/4
HINCKLEY       PTSUNNY   63  63 100 CALM      29.93S
CLOQUET        FOG       61  59  94 E5        29.97S VSB 1/4
MCGREGOR       CLOUDY    63  61  94 E5        29.95S VSB 3/4
$$
MNZ071>073-080-081-089-090-097-098-031000-
   Southwest Minnesota

CITY           SKY/WX    TMP DP  RH WIND       PRES   REMARKS
MONTEVIDEO     FOG       70  70 100 SE9       29.86S VSB 1/4
GRANITE FALLS  FOG       69  69  99 E5        29.86S VSB 3/4
CANBY            N/A     68  66  95 SE5       29.84S FOG
MARSHALL       CLEAR     70  64  83 SE9       29.85S
REDWOOD FALLS  FOG       70  69  97 E5        29.85S VSB 1/4
OLIVIA         FOG       68  64  88 E7        29.86S VSB 1/4
PIPESTONE      CLEAR     70  68  94 SE6       29.85F FOG
WINDOM         CLEAR     70  68  94 CALM      29.87F
WORTHINGTON    CLEAR     66  64  94 SE6       29.87S
JACKSON        CLEAR     70  68  94 SE6       29.88F
TRACY          CLEAR     71  70  97 S7        29.85F
SLAYTON        FOG       66  66 100 CALM      29.88S VSB 1/4
$$
MNZ065>067-074>077-082>085-091>093-031000-
   South Central Minnesota

CITY           SKY/WX    TMP DP  RH WIND       PRES   REMARKS
MANKATO        CLEAR     70  66  88 SE5       29.88S
NEW ULM        CLEAR     70  70 100 SE5       29.87S FOG
ST JAMES       CLEAR     70  68  94 SE5       29.87F
FAIRMONT       CLEAR     68  63  83 S3        29.87F
GLENCOE        FOG       70  70 100 E6        29.88S VSB 1/2
FARIBAULT      FOG       66  64  94 CALM      29.90S VSB 1/4
OWATONNA       CLEAR     68  66  94 E5        29.90S FOG
WASECA         CLEAR     68  64  88 E5        29.90S
ALBERT LEA     CLEAR     68  66  94 CALM      29.90S FOG
$$
MNZ078>079-086>088-094>096-031000-
   Southeast Minnesota

CITY           SKY/WX    TMP DP  RH WIND       PRES   REMARKS
ROCHESTER      CLEAR     65  64  97 SE5       29.93R FOG
RED WING       FOG       68  66  94 E6        29.89S VSB 1
STANTON        FOG       67  65  94 CALM      29.89R VSB 1/4
DODGE CENTER   CLEAR     66  66 100 SE6       29.92R FOG
WINONA         CLEAR     70  68  94 CALM      29.91R FOG
AUSTIN         CLEAR     66  64  94 CALM      29.91S FOG
PRESTON        PTCLDY    66  65  94 CALM      29.93S FOG
$$
ABBREVIATIONS USED IN REMARKS
   TC - TEMPERATURES IN CELSIUS
  WCI - WIND CHILL INDEX
   HX - HEAT INDEX
  VSB - VISIBILITY
$$


USA.gov is the U.S. government's official web portal to all federal, state and local government web resources and services.